Location: Fernhill
(41.0167°S, 175.6333°E)
Time: 16:02:29
(UTC+00:00)

Cosmos 1833 Rocket - Pass Details

Date: 22 February 2026
Orbit: 832 x 837 km, 71.0° (Epoch: 8 March)

Event Time Altitude Azimuth Distance (km) Brightness Sun altitude
Exits shadow 13:30:37 17° 219° (SW) 2,043 4.9 -37.1°
Drops below altitude 10° 13:33:30 10° 189° (S) 2,479 5.7 -36.9°
Sets 13:36:54 0° 169° (SSE) 3,421 6.8 -36.7°
